Year,Month,Day,Hour,Minute,Value (Times are PST for temperature in C)
2011,08,13,00,00,14.50
2011,08,13,00,01,14.40
2011,08,13,00,02,14.40
2011,08,13,00,03,14.40
2011,08,13,00,04,14.30
2011,08,13,00,05,14.30
2011,08,13,00,06,14.30
2011,08,13,00,07,14.30
2011,08,13,00,08,14.30
2011,08,13,00,09,14.40
2011,08,13,00,10,14.40
2011,08,13,00,11,14.40
2011,08,13,00,12,14.40
2011,08,13,00,13,14.40
2011,08,13,00,14,14.40
2011,08,13,00,15,14.40
2011,08,13,00,16,14.30
2011,08,13,00,17,14.30
2011,08,13,00,18,14.30
2011,08,13,00,19,14.30
2011,08,13,00,20,14.30
2011,08,13,00,21,14.30
2011,08,13,00,22,14.30
2011,08,13,00,23,14.30
2011,08,13,00,24,14.30
2011,08,13,00,25,14.30
2011,08,13,00,26,14.30
2011,08,13,00,27,14.30
2011,08,13,00,28,14.30
2011,08,13,00,29,14.30
2011,08,13,00,30,14.30
2011,08,13,00,31,14.30
2011,08,13,00,32,14.30
2011,08,13,00,33,14.30
2011,08,13,00,34,14.30
2011,08,13,00,35,14.40
2011,08,13,00,36,14.40
2011,08,13,00,37,14.40
2011,08,13,00,38,14.40
2011,08,13,00,39,14.30
2011,08,13,00,40,14.40
2011,08,13,00,41,14.40
2011,08,13,00,42,14.40
2011,08,13,00,43,14.40
2011,08,13,00,44,14.40
2011,08,13,00,45,14.40
2011,08,13,00,46,14.40
2011,08,13,00,47,14.40
2011,08,13,00,48,14.40
2011,08,13,00,49,14.40
2011,08,13,00,50,14.40
2011,08,13,00,51,14.40
2011,08,13,00,52,14.40
2011,08,13,00,53,14.40
2011,08,13,00,54,14.40
2011,08,13,00,55,14.40
2011,08,13,00,56,14.40
2011,08,13,00,57,14.40
2011,08,13,00,58,14.40
2011,08,13,00,59,14.30
2011,08,13,01,00,14.30
2011,08,13,01,01,14.30
2011,08,13,01,02,14.30
2011,08,13,01,03,14.30
2011,08,13,01,04,14.30
2011,08,13,01,05,14.30
2011,08,13,01,06,14.30
2011,08,13,01,07,14.30
2011,08,13,01,08,14.20
2011,08,13,01,09,14.20
2011,08,13,01,10,14.20
2011,08,13,01,11,14.20
2011,08,13,01,12,14.20
2011,08,13,01,13,14.20
2011,08,13,01,14,14.20
2011,08,13,01,15,14.20
2011,08,13,01,16,14.20
2011,08,13,01,17,14.20
2011,08,13,01,18,14.10
2011,08,13,01,19,14.10
2011,08,13,01,20,14.10
2011,08,13,01,21,14.10
2011,08,13,01,22,14.10
2011,08,13,01,23,14.00
2011,08,13,01,24,14.00
2011,08,13,01,25,14.00
2011,08,13,01,26,14.00
2011,08,13,01,27,13.90
2011,08,13,01,28,13.90
2011,08,13,01,29,13.90
2011,08,13,01,30,13.90
2011,08,13,01,31,13.90
2011,08,13,01,32,13.90
2011,08,13,01,33,13.90
2011,08,13,01,34,13.90
2011,08,13,01,35,13.90
2011,08,13,01,36,13.90
2011,08,13,01,37,13.90
2011,08,13,01,38,13.90
2011,08,13,01,39,13.90
2011,08,13,01,40,13.90
2011,08,13,01,41,14.00
2011,08,13,01,42,14.00
2011,08,13,01,43,14.00
2011,08,13,01,44,14.00
2011,08,13,01,45,14.00
2011,08,13,01,46,14.00
2011,08,13,01,47,14.00
2011,08,13,01,48,14.00
2011,08,13,01,49,14.00
2011,08,13,01,50,14.00
2011,08,13,01,51,14.00
2011,08,13,01,52,14.00
2011,08,13,01,53,14.00
2011,08,13,01,54,14.00
2011,08,13,01,55,13.90
2011,08,13,01,56,13.90
2011,08,13,01,57,13.90
2011,08,13,01,58,14.00
2011,08,13,01,59,14.00
2011,08,13,02,00,14.00
2011,08,13,02,01,14.00
2011,08,13,02,02,14.00
2011,08,13,02,03,14.00
2011,08,13,02,04,14.00
2011,08,13,02,05,14.00
2011,08,13,02,06,13.90
2011,08,13,02,07,13.90
2011,08,13,02,08,13.90
2011,08,13,02,09,14.00
2011,08,13,02,10,13.90
2011,08,13,02,11,13.90
2011,08,13,02,12,13.90
2011,08,13,02,13,14.00
2011,08,13,02,14,13.90
2011,08,13,02,15,13.90
2011,08,13,02,16,13.90
2011,08,13,02,17,13.90
2011,08,13,02,18,13.90
2011,08,13,02,19,13.90
2011,08,13,02,20,13.90
2011,08,13,02,21,13.80
2011,08,13,02,22,13.80
2011,08,13,02,23,13.80
2011,08,13,02,24,13.70
2011,08,13,02,25,13.70
2011,08,13,02,26,13.60
2011,08,13,02,27,13.60
2011,08,13,02,28,13.50
2011,08,13,02,29,13.50
2011,08,13,02,30,13.40
2011,08,13,02,31,13.40
2011,08,13,02,32,13.40
2011,08,13,02,33,13.30
2011,08,13,02,34,13.30
2011,08,13,02,35,13.30
2011,08,13,02,36,13.30
2011,08,13,02,37,13.30
2011,08,13,02,38,13.20
2011,08,13,02,39,13.20
2011,08,13,02,40,13.20
2011,08,13,02,41,13.20
2011,08,13,02,42,13.20
2011,08,13,02,43,13.20
2011,08,13,02,44,13.20
2011,08,13,02,45,13.20
2011,08,13,02,46,13.10
2011,08,13,02,47,13.10
2011,08,13,02,48,13.10
2011,08,13,02,49,13.10
2011,08,13,02,50,13.10
2011,08,13,02,51,13.00
2011,08,13,02,52,13.00
2011,08,13,02,53,13.00
2011,08,13,02,54,12.90
2011,08,13,02,55,12.90
2011,08,13,02,56,12.90
2011,08,13,02,57,12.90
2011,08,13,02,58,12.90
2011,08,13,02,59,12.80
2011,08,13,03,00,12.80
2011,08,13,03,01,12.80
2011,08,13,03,02,12.80
2011,08,13,03,03,12.80
2011,08,13,03,04,12.80
2011,08,13,03,05,12.80
2011,08,13,03,06,12.80
2011,08,13,03,07,12.80
2011,08,13,03,08,12.80
2011,08,13,03,09,12.80
2011,08,13,03,10,12.80
2011,08,13,03,11,12.80
2011,08,13,03,12,12.80
2011,08,13,03,13,12.80
2011,08,13,03,14,12.80
2011,08,13,03,15,12.80
2011,08,13,03,16,12.80
2011,08,13,03,17,12.80
2011,08,13,03,18,12.80
2011,08,13,03,19,12.90
2011,08,13,03,20,12.90
2011,08,13,03,21,12.90
2011,08,13,03,22,12.90
2011,08,13,03,23,12.90
2011,08,13,03,24,12.90
2011,08,13,03,25,12.90
2011,08,13,03,26,12.90
2011,08,13,03,27,13.00
2011,08,13,03,28,13.00
2011,08,13,03,29,13.00
2011,08,13,03,30,13.00
2011,08,13,03,31,13.00
2011,08,13,03,32,13.00
2011,08,13,03,33,13.00
2011,08,13,03,34,13.00
2011,08,13,03,35,13.00
2011,08,13,03,36,13.10
2011,08,13,03,37,13.10
2011,08,13,03,38,13.10
2011,08,13,03,39,13.10
2011,08,13,03,40,13.10
2011,08,13,03,41,13.10
2011,08,13,03,42,13.10
2011,08,13,03,43,13.10
2011,08,13,03,44,13.10
2011,08,13,03,45,13.10
2011,08,13,03,46,13.20
2011,08,13,03,47,13.20
2011,08,13,03,48,13.10
2011,08,13,03,49,13.10
2011,08,13,03,50,13.10
2011,08,13,03,51,13.10
2011,08,13,03,52,13.20
2011,08,13,03,53,13.20
2011,08,13,03,54,13.20
2011,08,13,03,55,13.20
2011,08,13,03,56,13.20
2011,08,13,03,57,13.20
2011,08,13,03,58,13.20
2011,08,13,03,59,13.20
2011,08,13,04,00,13.20
2011,08,13,04,01,13.20
2011,08,13,04,02,13.10
2011,08,13,04,03,13.10
2011,08,13,04,04,13.10
2011,08,13,04,05,13.10
2011,08,13,04,06,13.10
2011,08,13,04,07,13.10
2011,08,13,04,08,13.10
2011,08,13,04,09,13.10
2011,08,13,04,10,13.10
2011,08,13,04,11,13.10
2011,08,13,04,12,13.10
2011,08,13,04,13,13.20
2011,08,13,04,14,13.20
2011,08,13,04,15,13.20
2011,08,13,04,16,13.20
2011,08,13,04,17,13.20
2011,08,13,04,18,13.20
2011,08,13,04,19,13.20
2011,08,13,04,20,13.20
2011,08,13,04,21,13.20
2011,08,13,04,22,13.20
2011,08,13,04,23,13.20
2011,08,13,04,24,13.10
2011,08,13,04,25,13.10
2011,08,13,04,26,13.10
2011,08,13,04,27,13.10
2011,08,13,04,28,13.10
2011,08,13,04,29,13.00
2011,08,13,04,30,13.00
2011,08,13,04,31,13.00
2011,08,13,04,32,12.90
2011,08,13,04,33,12.90
2011,08,13,04,34,12.90
2011,08,13,04,35,12.90
2011,08,13,04,36,12.90
2011,08,13,04,37,12.90
2011,08,13,04,38,12.80
2011,08,13,04,39,12.80
2011,08,13,04,40,12.90
2011,08,13,04,41,12.90
2011,08,13,04,42,12.90
2011,08,13,04,43,12.90
2011,08,13,04,44,12.90
2011,08,13,04,45,12.90
2011,08,13,04,46,12.90
2011,08,13,04,47,12.90
2011,08,13,04,48,12.90
2011,08,13,04,49,12.90
2011,08,13,04,50,12.80
2011,08,13,04,51,12.80
2011,08,13,04,52,12.80
2011,08,13,04,53,12.80
2011,08,13,04,54,12.80
2011,08,13,04,55,12.70
2011,08,13,04,56,12.70
2011,08,13,04,57,12.70
2011,08,13,04,58,12.70
2011,08,13,04,59,12.60
2011,08,13,05,00,12.60
2011,08,13,05,01,12.60
2011,08,13,05,02,12.60
2011,08,13,05,03,12.60
2011,08,13,05,04,12.50
2011,08,13,05,05,12.50
2011,08,13,05,06,12.50
2011,08,13,05,07,12.50
2011,08,13,05,08,12.40
2011,08,13,05,09,12.40
2011,08,13,05,10,12.40
2011,08,13,05,11,12.40
2011,08,13,05,12,12.40
2011,08,13,05,13,12.40
2011,08,13,05,14,12.40
2011,08,13,05,15,12.40
2011,08,13,05,16,12.40
2011,08,13,05,17,12.40
2011,08,13,05,18,12.40
2011,08,13,05,19,12.40
2011,08,13,05,20,12.40
2011,08,13,05,21,12.30
2011,08,13,05,22,12.30
2011,08,13,05,23,12.30
2011,08,13,05,24,12.30
2011,08,13,05,25,12.30
2011,08,13,05,26,12.40
2011,08,13,05,27,12.40
2011,08,13,05,28,12.40
2011,08,13,05,29,12.30
2011,08,13,05,30,12.30
2011,08,13,05,31,12.30
2011,08,13,05,32,12.30
2011,08,13,05,33,12.30
2011,08,13,05,34,12.30
2011,08,13,05,35,12.30
2011,08,13,05,36,12.30
2011,08,13,05,37,12.30
2011,08,13,05,38,12.30
2011,08,13,05,39,12.30
2011,08,13,05,40,12.30
2011,08,13,05,41,12.20
2011,08,13,05,42,12.20
2011,08,13,05,43,12.20
2011,08,13,05,44,12.20
2011,08,13,05,45,12.20
2011,08,13,05,46,12.20
2011,08,13,05,47,12.10
2011,08,13,05,48,12.10
2011,08,13,05,49,12.10
2011,08,13,05,50,12.10
2011,08,13,05,51,12.10
2011,08,13,05,52,12.10
2011,08,13,05,53,12.10
2011,08,13,05,54,12.10
2011,08,13,05,55,12.00
2011,08,13,05,56,12.00
2011,08,13,05,57,12.00
2011,08,13,05,58,12.00
2011,08,13,05,59,11.90
2011,08,13,06,00,11.90
2011,08,13,06,01,11.90
2011,08,13,06,02,11.90
2011,08,13,06,03,11.90
2011,08,13,06,04,11.90
2011,08,13,06,05,11.90
2011,08,13,06,06,11.80
2011,08,13,06,07,11.80
2011,08,13,06,08,11.80
2011,08,13,06,09,11.80
2011,08,13,06,10,11.80
2011,08,13,06,11,11.80
2011,08,13,06,12,11.80
2011,08,13,06,13,11.80
2011,08,13,06,14,11.80
2011,08,13,06,15,11.80
2011,08,13,06,16,11.80
2011,08,13,06,17,11.80
2011,08,13,06,18,11.80
2011,08,13,06,19,11.80
2011,08,13,06,20,11.80
2011,08,13,06,21,11.80
2011,08,13,06,22,11.80
2011,08,13,06,23,11.80
2011,08,13,06,24,11.80
2011,08,13,06,25,11.80
2011,08,13,06,26,11.80
2011,08,13,06,27,11.80
2011,08,13,06,28,11.80
2011,08,13,06,29,11.80
2011,08,13,06,30,11.80
2011,08,13,06,31,11.90
2011,08,13,06,32,11.90
2011,08,13,06,33,12.00
2011,08,13,06,34,12.00
2011,08,13,06,35,12.10
2011,08,13,06,36,12.10
2011,08,13,06,37,12.10
2011,08,13,06,38,12.10
2011,08,13,06,39,12.10
2011,08,13,06,40,12.20
2011,08,13,06,41,12.20
2011,08,13,06,42,12.20
2011,08,13,06,43,12.20
2011,08,13,06,44,12.20
2011,08,13,06,45,12.20
2011,08,13,06,46,12.30
2011,08,13,06,47,12.30
2011,08,13,06,48,12.30
2011,08,13,06,49,12.30
2011,08,13,06,50,12.30
2011,08,13,06,51,12.30
2011,08,13,06,52,12.30
2011,08,13,06,53,12.30
2011,08,13,06,54,12.30
2011,08,13,06,55,12.30
2011,08,13,06,56,12.40
2011,08,13,06,57,12.40
2011,08,13,06,58,12.40
2011,08,13,06,59,12.40
2011,08,13,07,00,12.40
2011,08,13,07,01,12.40
2011,08,13,07,02,12.50
2011,08,13,07,03,12.50
2011,08,13,07,04,12.50
2011,08,13,07,05,12.60
2011,08,13,07,06,12.60
2011,08,13,07,07,12.60
2011,08,13,07,08,12.60
2011,08,13,07,09,12.60
2011,08,13,07,10,12.60
2011,08,13,07,11,12.70
2011,08,13,07,12,12.70
2011,08,13,07,13,12.80
2011,08,13,07,14,12.80
2011,08,13,07,15,12.90
2011,08,13,07,16,12.90
2011,08,13,07,17,12.90
2011,08,13,07,18,13.00
2011,08,13,07,19,13.00
2011,08,13,07,20,13.10
2011,08,13,07,21,13.10
2011,08,13,07,22,13.10
2011,08,13,07,23,13.10
2011,08,13,07,24,13.10
2011,08,13,07,25,13.20
2011,08,13,07,26,13.20
2011,08,13,07,27,13.20
2011,08,13,07,28,13.20
2011,08,13,07,29,13.20
2011,08,13,07,30,13.30
2011,08,13,07,31,13.30
2011,08,13,07,32,13.30
2011,08,13,07,33,13.40
2011,08,13,07,34,13.40
2011,08,13,07,35,13.50
2011,08,13,07,36,13.50
2011,08,13,07,37,13.60
2011,08,13,07,38,13.60
2011,08,13,07,39,13.70
2011,08,13,07,40,13.70
2011,08,13,07,41,13.80
2011,08,13,07,42,13.80
2011,08,13,07,43,13.90
2011,08,13,07,44,13.90
2011,08,13,07,45,13.90
2011,08,13,07,46,14.00
2011,08,13,07,47,14.00
2011,08,13,07,48,14.10
2011,08,13,07,49,14.10
2011,08,13,07,50,14.10
2011,08,13,07,51,14.20
2011,08,13,07,52,14.20
2011,08,13,07,53,14.20
2011,08,13,07,54,14.30
2011,08,13,07,55,14.30
2011,08,13,07,56,14.40
2011,08,13,07,57,14.40
2011,08,13,07,58,14.50
2011,08,13,07,59,14.50
2011,08,13,08,00,14.60
2011,08,13,08,01,14.60
2011,08,13,08,02,14.70
2011,08,13,08,03,14.70
2011,08,13,08,04,14.70
2011,08,13,08,05,14.80
2011,08,13,08,06,14.80
2011,08,13,08,07,14.90
2011,08,13,08,08,15.00
2011,08,13,08,09,15.00
2011,08,13,08,10,15.00
2011,08,13,08,11,15.00
2011,08,13,08,12,15.00
2011,08,13,08,13,15.00
2011,08,13,08,14,15.10
2011,08,13,08,15,15.20
2011,08,13,08,16,15.30
2011,08,13,08,17,15.30
2011,08,13,08,18,15.40
2011,08,13,08,19,15.50
2011,08,13,08,20,15.60
2011,08,13,08,21,15.60
2011,08,13,08,22,15.70
2011,08,13,08,23,15.70
2011,08,13,08,24,15.70
2011,08,13,08,25,15.80
2011,08,13,08,26,15.80
2011,08,13,08,27,15.90
2011,08,13,08,28,16.00
2011,08,13,08,29,16.00
2011,08,13,08,30,16.10
2011,08,13,08,31,16.10
2011,08,13,08,32,16.10
2011,08,13,08,33,16.20
2011,08,13,08,34,16.20
2011,08,13,08,35,16.30
2011,08,13,08,36,16.30
2011,08,13,08,37,16.30
2011,08,13,08,38,16.40
2011,08,13,08,39,16.40
2011,08,13,08,40,16.50
2011,08,13,08,41,16.50
2011,08,13,08,42,16.50
2011,08,13,08,43,16.50
2011,08,13,08,44,16.50
2011,08,13,08,45,16.50
2011,08,13,08,46,16.50
2011,08,13,08,47,16.60
2011,08,13,08,48,16.60
2011,08,13,08,49,16.70
2011,08,13,08,50,16.70
2011,08,13,08,51,16.80
2011,08,13,08,52,16.80
2011,08,13,08,53,16.80
2011,08,13,08,54,16.90
2011,08,13,08,55,17.00
2011,08,13,08,56,17.00
2011,08,13,08,57,17.10
2011,08,13,08,58,17.20
2011,08,13,08,59,17.30
2011,08,13,09,00,17.30
2011,08,13,09,01,17.30
2011,08,13,09,02,17.30
2011,08,13,09,03,17.40
2011,08,13,09,04,17.50
2011,08,13,09,05,17.60
2011,08,13,09,06,17.70
2011,08,13,09,07,17.70
2011,08,13,09,08,17.80
2011,08,13,09,09,17.80
2011,08,13,09,10,17.90
2011,08,13,09,11,17.90
2011,08,13,09,12,18.00
2011,08,13,09,13,18.00
2011,08,13,09,14,18.10
2011,08,13,09,15,18.20
2011,08,13,09,16,18.30
2011,08,13,09,17,18.30
2011,08,13,09,18,18.30
2011,08,13,09,19,18.30
2011,08,13,09,20,18.20
2011,08,13,09,21,18.10
2011,08,13,09,22,18.00
2011,08,13,09,23,18.00
2011,08,13,09,24,17.90
2011,08,13,09,25,18.00
2011,08,13,09,26,18.10
2011,08,13,09,27,18.10
2011,08,13,09,28,18.10
2011,08,13,09,29,18.20
2011,08,13,09,30,18.30
2011,08,13,09,31,18.30
2011,08,13,09,32,18.30
2011,08,13,09,33,18.20
2011,08,13,09,34,18.20
2011,08,13,09,35,18.20
2011,08,13,09,36,18.10
2011,08,13,09,37,18.10
2011,08,13,09,38,18.00
2011,08,13,09,39,18.00
2011,08,13,09,40,18.10
2011,08,13,09,41,18.10
2011,08,13,09,42,18.20
2011,08,13,09,43,18.20
2011,08,13,09,44,18.20
2011,08,13,09,45,18.30
2011,08,13,09,46,18.30
2011,08,13,09,47,18.30
2011,08,13,09,48,18.30
2011,08,13,09,49,18.20
2011,08,13,09,50,18.20
2011,08,13,09,51,18.20
2011,08,13,09,52,18.10
2011,08,13,09,53,18.10
2011,08,13,09,54,18.20
2011,08,13,09,55,18.20
2011,08,13,09,56,18.30
2011,08,13,09,57,18.40
2011,08,13,09,58,18.40
2011,08,13,09,59,18.40
2011,08,13,10,00,18.40
2011,08,13,10,01,18.40
2011,08,13,10,02,18.40
2011,08,13,10,03,18.40
2011,08,13,10,04,18.40
2011,08,13,10,05,18.40
2011,08,13,10,06,18.40
2011,08,13,10,07,18.50
2011,08,13,10,08,18.50
2011,08,13,10,09,18.50
2011,08,13,10,10,18.50
2011,08,13,10,11,18.60
2011,08,13,10,12,18.60
2011,08,13,10,13,18.50
2011,08,13,10,14,18.40
2011,08,13,10,15,18.30
2011,08,13,10,16,18.30
2011,08,13,10,17,18.30
2011,08,13,10,18,18.40
2011,08,13,10,19,18.40
2011,08,13,10,20,18.50
2011,08,13,10,21,18.50
2011,08,13,10,22,18.60
2011,08,13,10,23,18.60
2011,08,13,10,24,18.70
2011,08,13,10,25,18.70
2011,08,13,10,26,18.70
2011,08,13,10,27,18.70
2011,08,13,10,28,18.70
2011,08,13,10,29,18.70
2011,08,13,10,30,18.60
2011,08,13,10,31,18.60
2011,08,13,10,32,18.60
2011,08,13,10,33,18.60
2011,08,13,10,34,18.60
2011,08,13,10,35,18.50
2011,08,13,10,36,18.50
2011,08,13,10,37,18.50
2011,08,13,10,38,18.50
2011,08,13,10,39,18.60
2011,08,13,10,40,18.60
2011,08,13,10,41,18.70
2011,08,13,10,42,18.70
2011,08,13,10,43,18.80
2011,08,13,10,44,18.90
2011,08,13,10,45,18.90
2011,08,13,10,46,18.90
2011,08,13,10,47,18.80
2011,08,13,10,48,18.70
2011,08,13,10,49,18.60
2011,08,13,10,50,18.60
2011,08,13,10,51,18.60
2011,08,13,10,52,18.60
2011,08,13,10,53,18.60
2011,08,13,10,54,18.60
2011,08,13,10,55,18.70
2011,08,13,10,56,18.70
2011,08,13,10,57,18.70
2011,08,13,10,58,18.70
2011,08,13,10,59,18.70
2011,08,13,11,00,18.80
2011,08,13,11,01,18.80
2011,08,13,11,02,18.70
2011,08,13,11,03,18.60
2011,08,13,11,04,18.50
2011,08,13,11,05,18.50
2011,08,13,11,06,18.40
2011,08,13,11,07,18.40
2011,08,13,11,08,18.40
2011,08,13,11,09,18.40
2011,08,13,11,10,18.40
2011,08,13,11,11,18.40
2011,08,13,11,12,18.20
2011,08,13,11,13,18.00
2011,08,13,11,14,17.90
2011,08,13,11,15,17.90
2011,08,13,11,16,17.90
2011,08,13,11,17,17.90
2011,08,13,11,18,17.90
2011,08,13,11,19,17.90
2011,08,13,11,20,17.80
2011,08,13,11,21,17.80
2011,08,13,11,22,17.70
2011,08,13,11,23,17.70
2011,08,13,11,24,17.70
2011,08,13,11,25,17.70
2011,08,13,11,26,17.70
2011,08,13,11,27,17.70
2011,08,13,11,28,17.60
2011,08,13,11,29,17.60
2011,08,13,11,30,17.60
2011,08,13,11,31,17.70
2011,08,13,11,32,17.60
2011,08,13,11,33,17.60
2011,08,13,11,34,17.60
2011,08,13,11,35,17.70
2011,08,13,11,36,17.70
2011,08,13,11,37,17.70
2011,08,13,11,38,17.80
2011,08,13,11,39,17.80
2011,08,13,11,40,17.80
2011,08,13,11,41,17.80
2011,08,13,11,42,17.70
2011,08,13,11,43,17.70
2011,08,13,11,44,17.70
2011,08,13,11,45,17.70
2011,08,13,11,46,17.70
2011,08,13,11,47,17.80
2011,08,13,11,48,17.80
2011,08,13,11,49,17.70
2011,08,13,11,50,17.70
2011,08,13,11,51,17.70
2011,08,13,11,52,17.70
2011,08,13,11,53,17.70
2011,08,13,11,54,17.70
2011,08,13,11,55,17.70
2011,08,13,11,56,17.70
2011,08,13,11,57,17.70
2011,08,13,11,58,17.70
2011,08,13,11,59,17.70
2011,08,13,12,00,17.70
2011,08,13,12,01,17.80
2011,08,13,12,02,17.70
2011,08,13,12,03,17.70
2011,08,13,12,04,17.70
2011,08,13,12,05,17.70
2011,08,13,12,06,17.60
2011,08,13,12,07,17.60
2011,08,13,12,08,17.60
2011,08,13,12,09,17.70
2011,08,13,12,10,17.70
2011,08,13,12,11,17.70
2011,08,13,12,12,17.80
2011,08,13,12,13,17.80
2011,08,13,12,14,17.80
2011,08,13,12,15,17.80
2011,08,13,12,16,17.90
2011,08,13,12,17,18.00
2011,08,13,12,18,18.20
2011,08,13,12,19,18.20
2011,08,13,12,20,18.20
2011,08,13,12,21,18.30
2011,08,13,12,22,18.20
2011,08,13,12,23,18.20
2011,08,13,12,24,18.30
2011,08,13,12,25,18.30
2011,08,13,12,26,18.30
2011,08,13,12,27,18.30
2011,08,13,12,28,18.30
2011,08,13,12,29,18.30
2011,08,13,12,30,18.30
2011,08,13,12,31,18.20
2011,08,13,12,32,18.20
2011,08,13,12,33,18.10
2011,08,13,12,34,18.10
2011,08,13,12,35,18.20
2011,08,13,12,36,18.20
2011,08,13,12,37,18.30
2011,08,13,12,38,18.30
2011,08,13,12,39,18.20
2011,08,13,12,40,18.20
2011,08,13,12,41,18.10
2011,08,13,12,42,18.20
2011,08,13,12,43,18.10
2011,08,13,12,44,18.10
2011,08,13,12,45,18.10
2011,08,13,12,46,18.10
2011,08,13,12,47,18.00
2011,08,13,12,48,17.90
2011,08,13,12,49,17.90
2011,08,13,12,50,17.80
2011,08,13,12,51,17.80
2011,08,13,12,52,17.90
2011,08,13,12,53,17.90
2011,08,13,12,54,18.00
2011,08,13,12,55,18.10
2011,08,13,12,56,18.10
2011,08,13,12,57,18.20
2011,08,13,12,58,18.20
2011,08,13,12,59,18.20
2011,08,13,13,00,18.30
2011,08,13,13,01,18.40
2011,08,13,13,02,18.40
2011,08,13,13,03,18.40
2011,08,13,13,04,18.40
2011,08,13,13,05,18.40
2011,08,13,13,06,18.40
2011,08,13,13,07,18.40
2011,08,13,13,08,18.50
2011,08,13,13,09,18.50
2011,08,13,13,10,18.50
2011,08,13,13,11,18.60
2011,08,13,13,12,18.60
2011,08,13,13,13,18.80
2011,08,13,13,14,18.80
2011,08,13,13,15,18.70
2011,08,13,13,16,18.60
2011,08,13,13,17,18.60
2011,08,13,13,18,18.50
2011,08,13,13,19,18.40
2011,08,13,13,20,18.30
2011,08,13,13,21,18.30
2011,08,13,13,22,18.30
2011,08,13,13,23,18.20
2011,08,13,13,24,18.20
2011,08,13,13,25,18.20
2011,08,13,13,26,18.20
2011,08,13,13,27,18.10
2011,08,13,13,28,18.20
2011,08,13,13,29,18.20
2011,08,13,13,30,18.10
2011,08,13,13,31,18.10
2011,08,13,13,32,18.10
2011,08,13,13,33,18.10
2011,08,13,13,34,18.10
2011,08,13,13,35,18.20
2011,08,13,13,36,18.10
2011,08,13,13,37,18.10
2011,08,13,13,38,18.00
2011,08,13,13,39,17.90
2011,08,13,13,40,17.90
2011,08,13,13,41,17.90
2011,08,13,13,42,17.90
2011,08,13,13,43,17.90
2011,08,13,13,44,17.90
2011,08,13,13,45,17.90
2011,08,13,13,46,17.90
2011,08,13,13,47,17.90
2011,08,13,13,48,17.90
2011,08,13,13,49,17.90
2011,08,13,13,50,17.90
2011,08,13,13,51,17.90
2011,08,13,13,52,17.90
2011,08,13,13,53,17.90
2011,08,13,13,54,17.90
2011,08,13,13,55,18.00
2011,08,13,13,56,18.00
2011,08,13,13,57,18.10
2011,08,13,13,58,18.20
2011,08,13,13,59,18.20
2011,08,13,14,00,18.30
2011,08,13,14,01,18.30
2011,08,13,14,02,18.40
2011,08,13,14,03,18.40
2011,08,13,14,04,18.40
2011,08,13,14,05,18.40
2011,08,13,14,06,18.30
2011,08,13,14,07,18.30
2011,08,13,14,08,18.30
2011,08,13,14,09,18.30
2011,08,13,14,10,18.30
2011,08,13,14,11,18.30
2011,08,13,14,12,18.30
2011,08,13,14,13,18.40
2011,08,13,14,14,18.50
2011,08,13,14,15,18.50
2011,08,13,14,16,18.50
2011,08,13,14,17,18.60
2011,08,13,14,18,18.70
2011,08,13,14,19,18.70
2011,08,13,14,20,18.80
2011,08,13,14,21,18.80
2011,08,13,14,22,18.80
2011,08,13,14,23,18.80
2011,08,13,14,24,18.70
2011,08,13,14,25,18.70
2011,08,13,14,26,18.70
2011,08,13,14,27,18.60
2011,08,13,14,28,18.60
2011,08,13,14,29,18.60
2011,08,13,14,30,18.60
2011,08,13,14,31,18.50
2011,08,13,14,32,18.40
2011,08,13,14,33,18.40
2011,08,13,14,34,18.40
2011,08,13,14,35,18.40
2011,08,13,14,36,18.40
2011,08,13,14,37,18.40
2011,08,13,14,38,18.40
2011,08,13,14,39,18.40
2011,08,13,14,40,18.40
2011,08,13,14,41,18.40
2011,08,13,14,42,18.40
2011,08,13,14,43,18.30
2011,08,13,14,44,18.30
2011,08,13,14,45,18.20
2011,08,13,14,46,18.20
2011,08,13,14,47,18.20
2011,08,13,14,48,18.20
2011,08,13,14,49,18.20
2011,08,13,14,50,18.30
2011,08,13,14,51,18.30
2011,08,13,14,52,18.40
2011,08,13,14,53,18.40
2011,08,13,14,54,18.50
2011,08,13,14,55,18.50
2011,08,13,14,56,18.50
2011,08,13,14,57,18.40
2011,08,13,14,58,18.40
2011,08,13,14,59,18.40
2011,08,13,15,00,18.50
2011,08,13,15,01,18.40
2011,08,13,15,02,18.50
2011,08,13,15,03,18.50
2011,08,13,15,04,18.50
2011,08,13,15,05,18.40
2011,08,13,15,06,18.40
2011,08,13,15,07,18.30
2011,08,13,15,08,18.20
2011,08,13,15,09,18.20
2011,08,13,15,10,18.20
2011,08,13,15,11,18.10
2011,08,13,15,12,18.10
2011,08,13,15,13,18.10
2011,08,13,15,14,18.00
2011,08,13,15,15,18.00
2011,08,13,15,16,18.00
2011,08,13,15,17,18.00
2011,08,13,15,18,18.10
2011,08,13,15,19,18.10
2011,08,13,15,20,18.20
2011,08,13,15,21,18.20
2011,08,13,15,22,18.20
2011,08,13,15,23,18.20
2011,08,13,15,24,18.30
2011,08,13,15,25,18.30
2011,08,13,15,26,18.30
2011,08,13,15,27,18.30
2011,08,13,15,28,18.30
2011,08,13,15,29,18.30
2011,08,13,15,30,18.20
2011,08,13,15,31,18.20
2011,08,13,15,32,18.30
2011,08,13,15,33,18.30
2011,08,13,15,34,18.30
2011,08,13,15,35,18.30
2011,08,13,15,36,18.30
2011,08,13,15,37,18.40
2011,08,13,15,38,18.40
2011,08,13,15,39,18.50
2011,08,13,15,40,18.50
2011,08,13,15,41,18.60
2011,08,13,15,42,18.70
2011,08,13,15,43,18.70
2011,08,13,15,44,18.70
2011,08,13,15,45,18.80
2011,08,13,15,46,18.80
2011,08,13,15,47,18.80
2011,08,13,15,48,18.80
2011,08,13,15,49,18.80
2011,08,13,15,50,18.80
2011,08,13,15,51,18.90
2011,08,13,15,52,18.90
2011,08,13,15,53,19.00
2011,08,13,15,54,19.00
2011,08,13,15,55,19.10
2011,08,13,15,56,19.00
2011,08,13,15,57,19.00
2011,08,13,15,58,18.90
2011,08,13,15,59,19.00
2011,08,13,16,00,18.90
2011,08,13,16,01,18.90
2011,08,13,16,02,18.90
2011,08,13,16,03,18.80
2011,08,13,16,04,18.80
2011,08,13,16,05,18.80
2011,08,13,16,06,18.80
2011,08,13,16,07,18.80
2011,08,13,16,08,18.70
2011,08,13,16,09,18.70
2011,08,13,16,10,18.60
2011,08,13,16,11,18.60
2011,08,13,16,12,18.60
2011,08,13,16,13,18.50
2011,08,13,16,14,18.60
2011,08,13,16,15,18.60
2011,08,13,16,16,18.60
2011,08,13,16,17,18.50
2011,08,13,16,18,18.50
2011,08,13,16,19,18.50
2011,08,13,16,20,18.50
2011,08,13,16,21,18.60
2011,08,13,16,22,18.60
2011,08,13,16,23,18.50
2011,08,13,16,24,18.50
2011,08,13,16,25,18.40
2011,08,13,16,26,18.20
2011,08,13,16,27,18.10
2011,08,13,16,28,18.10
2011,08,13,16,29,18.00
2011,08,13,16,30,18.00
2011,08,13,16,31,18.00
2011,08,13,16,32,18.00
2011,08,13,16,33,18.00
2011,08,13,16,34,18.00
2011,08,13,16,35,18.00
2011,08,13,16,36,18.00
2011,08,13,16,37,18.00
2011,08,13,16,38,18.00
2011,08,13,16,39,18.00
2011,08,13,16,40,18.00
2011,08,13,16,41,17.90
2011,08,13,16,42,17.90
2011,08,13,16,43,17.90
2011,08,13,16,44,17.90
2011,08,13,16,45,17.80
2011,08,13,16,46,17.70
2011,08,13,16,47,17.70
2011,08,13,16,48,17.60
2011,08,13,16,49,17.60
2011,08,13,16,50,17.60
2011,08,13,16,51,17.50
2011,08,13,16,52,17.50
2011,08,13,16,53,17.40
2011,08,13,16,54,17.40
2011,08,13,16,55,17.30
2011,08,13,16,56,17.30
2011,08,13,16,57,17.40
2011,08,13,16,58,17.40
2011,08,13,16,59,17.30
2011,08,13,17,00,17.30
2011,08,13,17,01,17.30
2011,08,13,17,02,17.40
2011,08,13,17,03,17.40
2011,08,13,17,04,17.40
2011,08,13,17,05,17.40
2011,08,13,17,06,17.40
2011,08,13,17,07,17.40
2011,08,13,17,08,17.40
2011,08,13,17,09,17.40
2011,08,13,17,10,17.40
2011,08,13,17,11,17.30
2011,08,13,17,12,17.30
2011,08,13,17,13,17.40
2011,08,13,17,14,17.40
2011,08,13,17,15,17.40
2011,08,13,17,16,17.40
2011,08,13,17,17,17.40
2011,08,13,17,18,17.50
2011,08,13,17,19,17.40